sat.trackr.live / text

‹ back to catalog

STARLINK-33678

NORAD 63509 · 2025-071S

PAYLOAD ACTIVE UNKNOWN

§ Identity

Operator
Country
US
Launch date
2025-04-07
Launch site
AFWTR
Launch vehicle
Mass (kg)
RCS (m²)

Purposes: comms

External: N2YO · Heavens-Above · Gunter

§ Orbital elements

Epoch: 2026-05-24T17:11:58.890912Z

Period
94.01 min
Inclination
53.1590°
Eccentricity
0.0001306
Mean motion
15.31719556 rev/d
Perigee alt
469.8 km
Apogee alt
471.6 km
Semi-major
6,848.8 km
B*
5.0041e-4
RAAN
146.4868°
Arg perigee
91.2863°
Mean anomaly
268.8288°
Rev number
6,414

§ Raw data

STARLINK-336781 63509U 25071S   26144.71665383  .00015204  00000+0  50041-3 0  99982 63509  53.1590 146.4868 0001306  91.2863 268.8288 15.31719556 64144

JSON: /api/v1/satellites/63509 · /tle

For live sub-satellite position, see the globe view (requires WebGL).

§ Visibility from observer

Set your observer location to see the next 7 days of passes ≥ 10°. The values pass through the URL so the page stays shareable.

No JS? Fill the form by hand. The geolocation button needs JavaScript.